Current Weather Conditions: station ENSL

sailwx.info

See reports from other nearby stations

no recent reports received from weather station ID ENSL

Tides Pressure Air temp Water temp Dewpoint Dewpoint depression Visibility Wind speed Wind direction Waves Ship positions
date/time (UTC)wind fromknots sea level pressurealtimeterstation pressurevisibilityair tempwater tempwave heightnotes
2017-Feb-24 23:20 180 25 5.4 4.0
2017-Feb-24 22:50 180 24 5.4 4.0
2017-Feb-24 22:20 170 20 5.4 5.0
2017-Feb-24 21:50 180 19 5.4 5.0
2017-Feb-24 21:20 190 14 5.4 5.0
2017-Feb-24 20:50 180 13 5.4 5.0
2017-Feb-24 20:20 180 7 5.4 5.0
2017-Feb-24 19:50 220 11 5.4 5.0
2017-Feb-24 19:20 230 7 5.4 4.0
2017-Feb-24 18:50 260 6 5.4 4.0
2017-Feb-24 18:20 270 5 5.4 4.0
2017-Feb-24 17:50 290 6 5.4 4.0
2017-Feb-24 17:20 300 6 5.4 4.0 Showers in the vicinity.
2017-Feb-24 16:50 310 6 5.4 5.0
2017-Feb-24 13:50 300 14 5.4 4.0 Showers in the vicinity.
2017-Feb-24 13:20 320 13 5.4 4.0 Showers in the vicinity.
2017-Feb-24 12:50 320 14 5.4 4.0 Showers in the vicinity.
2017-Feb-24 12:20 360 15 gusting 26 5.4 5.0 Light rain showers.
2017-Feb-24 11:50 330 17 5.4 6.0
2017-Feb-24 10:50 330 20 5.4 6.0 Showers in the vicinity.
2017-Feb-24 10:20 330 20 5.4 5.0
2017-Feb-24 09:50 330 20 5.4 4.0 Showers in the vicinity.
2017-Feb-24 09:20 330 13 5.4 5.0 Light rain showers.
2017-Feb-24 08:50 360 26 5.4 3.0 Showers in the vicinity.
2017-Feb-24 08:20 350 22 5.4 3.0 Light snow showers.
2017-Feb-24 07:50 320 24 5.4 5.0 Showers in the vicinity.
2017-Feb-24 07:20 340 25 5.4 4.0 Showers in the vicinity.
2017-Feb-24 06:50 340 26 5.4 4.0 Showers in the vicinity.
2017-Feb-24 06:20 340 25 5.4 4.0
2017-Feb-24 05:50 350 26 5.4 4.0
2017-Feb-24 05:20 010 27 5.4 4.0
2017-Feb-24 04:50 340 27 5.4 4.0
2017-Feb-24 04:20 340 27 5.4 4.0 Showers in the vicinity.
2017-Feb-24 03:50 320 35 gusting 47 5.4 4.0
2017-Feb-24 03:20 330 22 5.4 4.0
2017-Feb-24 02:50 340 20 5.4 3.0
2017-Feb-24 02:20 340 20 5.4 3.0
2017-Feb-24 01:50 350 31 gusting 42 5.4 4.0
2017-Feb-24 01:20 360 33 5.4 4.0
2017-Feb-24 00:50 360 22 5.4 3.0
2017-Feb-24 00:20 360 20 5.4 4.0
2017-Feb-23 23:50 010 17 5.4 3.0
2017-Feb-23 23:20 360 39 4.9 3.0 Light rain.
2017-Feb-23 22:50 010 24 5.4 4.0
2017-Feb-23 22:20 350 24 5.4 4.0
2017-Feb-23 21:50 340 27 5.4 3.0
2017-Feb-23 21:20 330 28 5.4 4.0
2017-Feb-23 20:50 330 27 5.4 4.0
2017-Feb-23 20:20 340 38 5.4 4.0
2017-Feb-23 19:50 360 31 5.4 4.0
2017-Feb-23 19:20 360 29 5.4 4.0
2017-Feb-23 18:50 360 31 5.4 4.0
2017-Feb-23 18:20 010 32 5.4 4.0 Light rain showers.
2017-Feb-23 17:50 010 32 5.4 4.0 Light rain showers.
2017-Feb-23 17:20 020 29 5.4 4.0 Light rain showers.
2017-Feb-23 16:50 020 28 5.4 4.0 Showers in the vicinity.
2017-Feb-23 16:20 020 27 5.4 4.0 Showers in the vicinity.
2017-Feb-23 15:50 020 27 5.4 4.0 Showers in the vicinity.
2017-Feb-23 15:20 020 26 5.4 4.0
2017-Feb-23 14:50 030 25 5.4 4.0 Showers in the vicinity.
2017-Feb-23 14:20 030 25 5.4 4.0
2017-Feb-23 13:50 030 21 5.4 4.0
2017-Feb-23 13:20 040 21 5.4 4.0
2017-Feb-23 12:50 040 21 5.4 4.0 Showers in the vicinity.
2017-Feb-23 12:20 030 27 5.4 4.0 Light rain showers.
2017-Feb-23 11:50 040 24 5.4 4.0 Light rain showers.
2017-Feb-23 11:20 060 22 5.4 4.0 Light rain showers.
2017-Feb-23 10:50 040 21 5.4 3.0 Light rain showers.
2017-Feb-23 10:20 050 18 5.4 4.0
2017-Feb-23 09:50 060 19 5.4 4.0
2017-Feb-23 09:20 050 19 5.4 4.0
2017-Feb-23 08:50 050 18 5.4 5.0
2017-Feb-23 08:20 040 14 5.4 5.0
2017-Feb-23 07:50 050 13 5.4 5.0
2017-Feb-23 07:20 040 13 5.4 5.0
2017-Feb-23 06:50 040 14 5.4 5.0
2017-Feb-23 06:20 030 13 5.4 5.0
2017-Feb-23 05:50 010 11 5.4 5.0
2017-Feb-23 05:20 020 13 5.4 5.0
2017-Feb-23 04:50 020 12 5.4 5.0
2017-Feb-23 04:20 010 14 5.4 5.0
2017-Feb-23 03:50 360 13 5.4 5.0
2017-Feb-23 03:20 360 17 5.4 6.0
2017-Feb-23 02:50 350 17 5.4 6.0
2017-Feb-23 02:20 350 19 5.4 6.0
2017-Feb-23 01:50 350 19 5.4 6.0
2017-Feb-23 01:20 350 21 5.4 6.0
2017-Feb-23 00:50 350 24 5.4 6.0
2017-Feb-23 00:20 350 24 5.4 6.0